owner,sensor,date,latitude,longitude,vertical_datum,sea_water_practical_salinity,qcFlag 
SCCF RECON,ioos:station:SCCF:51:1,2009-11-01T00:00:00Z,26.5545,-82.1715,1.96,33.12,1111122 
SCCF RECON,ioos:station:SCCF:51:1,2009-11-01T01:00:00Z,26.5545,-82.1715,2.049,33.83,1111122 
SCCF RECON,ioos:station:SCCF:51:1,2009-11-01T02:00:00Z,26.5545,-82.1715,2.148,34.66,1111122 
SCCF RECON,ioos:station:SCCF:51:1,2009-11-01T03:00:00Z,26.5545,-82.1715,2.231,34.82,1111122 
SCCF RECON,ioos:station:SCCF:51:1,2009-11-01T04:00:00Z,26.5545,-82.1715,2.27,34.83,1111122 
SCCF RECON,ioos:station:SCCF:51:1,2009-11-01T05:00:00Z,26.5545,-82.1715,2.229,34.67,1111122 
SCCF RECON,ioos:station:SCCF:51:1,2009-11-01T06:00:00Z,26.5545,-82.1715,2.14,34.31,1111122 
SCCF RECON,ioos:station:SCCF:51:1,2009-11-01T07:00:00Z,26.5545,-82.1715,2.016,33.51,1111122 
SCCF RECON,ioos:station:SCCF:51:1,2009-11-01T08:00:00Z,26.5545,-82.1715,1.87,33.3,1111122 
SCCF RECON,ioos:station:SCCF:51:1,2009-11-01T09:00:00Z,26.5545,-82.1715,1.741,33.07,1111122 
SCCF RECON,ioos:station:SCCF:51:1,2009-11-01T10:00:00Z,26.5545,-82.1715,1.64,32.7,1111122 
SCCF RECON,ioos:station:SCCF:51:1,2009-11-01T11:00:00Z,26.5545,-82.1715,1.57,32.92,1111122 
SCCF RECON,ioos:station:SCCF:51:1,2009-11-01T12:00:00Z,26.5545,-82.1715,1.59,33.04,1111122 
SCCF RECON,ioos:station:SCCF:51:1,2009-11-01T13:00:00Z,26.5545,-82.1715,1.675,33.11,1111122 
SCCF RECON,ioos:station:SCCF:51:1,2009-11-01T14:00:00Z,26.5545,-82.1715,1.814,33.77,1111122 
SCCF RECON,ioos:station:SCCF:51:1,2009-11-01T15:00:00Z,26.5545,-82.1715,1.966,34.71,1111122 
SCCF RECON,ioos:station:SCCF:51:1,2009-11-01T16:00:00Z,26.5545,-82.1715,2.07,34.67,1111122 
SCCF RECON,ioos:station:SCCF:51:1,2009-11-01T17:00:00Z,26.5545,-82.1715,2.121,34.68,1111122 
SCCF RECON,ioos:station:SCCF:51:1,2009-11-01T18:00:00Z,26.5545,-82.1715,2.118,34.8,1111122 
SCCF RECON,ioos:station:SCCF:51:1,2009-11-01T19:00:00Z,26.5545,-82.1715,2.059,33.97,1111122 
SCCF RECON,ioos:station:SCCF:51:1,2009-11-01T20:00:00Z,26.5545,-82.1715,1.991,33.65,1111122 
SCCF RECON,ioos:station:SCCF:51:1,2009-11-01T21:00:00Z,26.5545,-82.1715,1.929,33.45,1111122 
SCCF RECON,ioos:station:SCCF:51:1,2009-11-01T22:00:00Z,26.5545,-82.1715,1.902,33.58,1111122 
SCCF RECON,ioos:station:SCCF:51:1,2009-11-01T23:00:00Z,26.5545,-82.1715,1.918,33.8,1111122 
SCCF RECON,ioos:station:SCCF:51:1,2009-11-02T00:00:00Z,26.5545,-82.1715,1.954,33.97,1111122 
SCCF RECON,ioos:station:SCCF:51:1,2009-11-02T01:00:00Z,26.5545,-82.1715,2.021,34.36,1111122 
SCCF RECON,ioos:station:SCCF:51:1,2009-11-02T02:00:00Z,26.5545,-82.1715,2.113,34.68,1111122 
SCCF RECON,ioos:station:SCCF:51:1,2009-11-02T03:00:00Z,26.5545,-82.1715,2.204,35.09,1111122 
SCCF RECON,ioos:station:SCCF:51:1,2009-11-02T04:00:00Z,26.5545,-82.1715,2.269,35.29,1111122 
SCCF RECON,ioos:station:SCCF:51:1,2009-11-02T05:00:00Z,26.5545,-82.1715,2.268,35.23,1111122 
SCCF RECON,ioos:station:SCCF:51:1,2009-11-02T06:00:00Z,26.5545,-82.1715,2.198,35.11,1111122 
SCCF RECON,ioos:station:SCCF:51:1,2009-11-02T07:00:00Z,26.5545,-82.1715,2.07,34.7,1111122 
SCCF RECON,ioos:station:SCCF:51:1,2009-11-02T08:00:00Z,26.5545,-82.1715,1.925,34.51,1111122 
SCCF RECON,ioos:station:SCCF:51:1,2009-11-02T09:00:00Z,26.5545,-82.1715,1.78,34.16,1111122 
SCCF RECON,ioos:station:SCCF:51:1,2009-11-02T10:00:00Z,26.5545,-82.1715,1.659,33.91,1111122 
SCCF RECON,ioos:station:SCCF:51:1,2009-11-02T11:00:00Z,26.5545,-82.1715,1.567,33.82,1111122 
SCCF RECON,ioos:station:SCCF:51:1,2009-11-02T12:00:00Z,26.5545,-82.1715,1.52,33.77,1111122 
SCCF RECON,ioos:station:SCCF:51:1,2009-11-02T13:00:00Z,26.5545,-82.1715,1.583,33.85,1111122 
SCCF RECON,ioos:station:SCCF:51:1,2009-11-02T14:00:00Z,26.5545,-82.1715,1.7,34.28,1111122 
SCCF RECON,ioos:station:SCCF:51:1,2009-11-02T15:00:00Z,26.5545,-82.1715,1.853,34.96,1111122 
SCCF RECON,ioos:station:SCCF:51:1,2009-11-02T16:00:00Z,26.5545,-82.1715,1.99,35.01,1111122 
SCCF RECON,ioos:station:SCCF:51:1,2009-11-02T17:00:00Z,26.5545,-82.1715,2.082,34.85,1111122 
SCCF RECON,ioos:station:SCCF:51:1,2009-11-02T18:00:00Z,26.5545,-82.1715,2.124,34.98,1111122 
SCCF RECON,ioos:station:SCCF:51:1,2009-11-02T19:00:00Z,26.5545,-82.1715,2.1,35.07,1111122 
SCCF RECON,ioos:station:SCCF:51:1,2009-11-02T20:00:00Z,26.5545,-82.1715,2.039,34.75,1111122 
SCCF RECON,ioos:station:SCCF:51:1,2009-11-02T21:00:00Z,26.5545,-82.1715,1.971,34.48,1111122 
SCCF RECON,ioos:station:SCCF:51:1,2009-11-02T22:00:00Z,26.5545,-82.1715,1.938,34.5,1111122 
SCCF RECON,ioos:station:SCCF:51:1,2009-11-02T23:00:00Z,26.5545,-82.1715,1.948,34.31,1111122 
SCCF RECON,ioos:station:SCCF:51:1,2009-11-03T00:00:00Z,26.5545,-82.1715,1.985,34.67,1111122 
SCCF RECON,ioos:station:SCCF:51:1,2009-11-03T01:00:00Z,26.5545,-82.1715,2.039,34.92,1111122 
SCCF RECON,ioos:station:SCCF:51:1,2009-11-03T02:00:00Z,26.5545,-82.1715,2.119,35.04,1111122 
SCCF RECON,ioos:station:SCCF:51:1,2009-11-03T03:00:00Z,26.5545,-82.1715,2.206,35.1,1111122 
SCCF RECON,ioos:station:SCCF:51:1,2009-11-03T04:00:00Z,26.5545,-82.1715,2.278,35.14,1111122 
SCCF RECON,ioos:station:SCCF:51:1,2009-11-03T05:00:00Z,26.5545,-82.1715,2.292,35.17,1111122 
SCCF RECON,ioos:station:SCCF:51:1,2009-11-03T06:00:00Z,26.5545,-82.1715,2.237,35.14,1111122 
SCCF RECON,ioos:station:SCCF:51:1,2009-11-03T07:00:00Z,26.5545,-82.1715,2.141,35.07,1111122 
SCCF RECON,ioos:station:SCCF:51:1,2009-11-03T08:00:00Z,26.5545,-82.1715,2.012,35.0,1111122 
SCCF RECON,ioos:station:SCCF:51:1,2009-11-03T09:00:00Z,26.5545,-82.1715,1.866,34.43,1111122 
SCCF RECON,ioos:station:SCCF:51:1,2009-11-03T10:00:00Z,26.5545,-82.1715,1.73,34.24,1111122 
SCCF RECON,ioos:station:SCCF:51:1,2009-11-03T11:00:00Z,26.5545,-82.1715,1.605,34.14,1111122 
SCCF RECON,ioos:station:SCCF:51:1,2009-11-03T12:00:00Z,26.5545,-82.1715,1.51,34.1,1111122 
SCCF RECON,ioos:station:SCCF:51:1,2009-11-03T13:00:00Z,26.5545,-82.1715,1.469,34.17,1111122 
SCCF RECON,ioos:station:SCCF:51:1,2009-11-03T14:00:00Z,26.5545,-82.1715,1.54,34.33,1111122 
SCCF RECON,ioos:station:SCCF:51:1,2009-11-03T15:00:00Z,26.5545,-82.1715,1.667,34.61,1111122 
SCCF RECON,ioos:station:SCCF:51:1,2009-11-03T16:00:00Z,26.5545,-82.1715,1.82,34.96,1111122 
SCCF RECON,ioos:station:SCCF:51:1,2009-11-03T17:00:00Z,26.5545,-82.1715,1.949,34.98,1111122 
SCCF RECON,ioos:station:SCCF:51:1,2009-11-03T18:00:00Z,26.5545,-82.1715,2.025,34.9,1111122 
SCCF RECON,ioos:station:SCCF:51:1,2009-11-03T19:00:00Z,26.5545,-82.1715,2.058,35.04,1111122 
SCCF RECON,ioos:station:SCCF:51:1,2009-11-03T20:00:00Z,26.5545,-82.1715,2.029,34.89,1111122 
SCCF RECON,ioos:station:SCCF:51:1,2009-11-03T21:00:00Z,26.5545,-82.1715,1.971,34.57,1111122 
SCCF RECON,ioos:station:SCCF:51:1,2009-11-03T22:00:00Z,26.5545,-82.1715,1.924,34.6,1111122 
SCCF RECON,ioos:station:SCCF:51:1,2009-11-03T23:00:00Z,26.5545,-82.1715,1.898,34.18,1111122 
SCCF RECON,ioos:station:SCCF:51:1,2009-11-04T00:00:00Z,26.5545,-82.1715,1.914,34.18,1111122 
SCCF RECON,ioos:station:SCCF:51:1,2009-11-04T01:00:00Z,26.5545,-82.1715,1.974,34.65,1111122 
SCCF RECON,ioos:station:SCCF:51:1,2009-11-04T02:00:00Z,26.5545,-82.1715,2.043,34.86,1111122 
SCCF RECON,ioos:station:SCCF:51:1,2009-11-04T03:00:00Z,26.5545,-82.1715,2.128,34.97,1111122 
SCCF RECON,ioos:station:SCCF:51:1,2009-11-04T04:00:00Z,26.5545,-82.1715,2.213,35.08,1111122 
SCCF RECON,ioos:station:SCCF:51:1,2009-11-04T05:00:00Z,26.5545,-82.1715,2.248,35.08,1111122 
SCCF RECON,ioos:station:SCCF:51:1,2009-11-04T06:00:00Z,26.5545,-82.1715,2.217,35.08,1111122 
SCCF RECON,ioos:station:SCCF:51:1,2009-11-04T07:00:00Z,26.5545,-82.1715,2.138,35.02,1111122 
SCCF RECON,ioos:station:SCCF:51:1,2009-11-04T08:00:00Z,26.5545,-82.1715,2.029,34.9,1111122 
SCCF RECON,ioos:station:SCCF:51:1,2009-11-04T09:00:00Z,26.5545,-82.1715,1.894,34.69,1111122 
SCCF RECON,ioos:station:SCCF:51:1,2009-11-04T10:00:00Z,26.5545,-82.1715,1.751,34.42,1111122 
SCCF RECON,ioos:station:SCCF:51:1,2009-11-04T11:00:00Z,26.5545,-82.1715,1.619,34.27,1111122 
SCCF RECON,ioos:station:SCCF:51:1,2009-11-04T12:00:00Z,26.5545,-82.1715,1.501,34.22,1111122 
SCCF RECON,ioos:station:SCCF:51:1,2009-11-04T13:00:00Z,26.5545,-82.1715,1.405,34.26,1111122 
SCCF RECON,ioos:station:SCCF:51:1,2009-11-04T14:00:00Z,26.5545,-82.1715,1.386,34.29,1111122 
SCCF RECON,ioos:station:SCCF:51:1,2009-11-04T15:00:00Z,26.5545,-82.1715,1.484,34.34,1111122 
SCCF RECON,ioos:station:SCCF:51:1,2009-11-04T16:00:00Z,26.5545,-82.1715,1.62,34.52,1111122 
SCCF RECON,ioos:station:SCCF:51:1,2009-11-04T17:00:00Z,26.5545,-82.1715,1.769,34.96,1111122 
SCCF RECON,ioos:station:SCCF:51:1,2009-11-04T19:00:00Z,26.5545,-82.1715,1.967,34.74,1111122 
SCCF RECON,ioos:station:SCCF:51:1,2009-11-04T20:00:00Z,26.5545,-82.1715,2.007,34.9,1111122 
SCCF RECON,ioos:station:SCCF:51:1,2009-11-04T21:00:00Z,26.5545,-82.1715,2.004,34.73,1111122 
SCCF RECON,ioos:station:SCCF:51:1,2009-11-04T22:00:00Z,26.5545,-82.1715,1.977,34.62,1111122 
SCCF RECON,ioos:station:SCCF:51:1,2009-11-04T23:00:00Z,26.5545,-82.1715,1.962,34.25,1111122 
SCCF RECON,ioos:station:SCCF:51:1,2009-11-05T00:00:00Z,26.5545,-82.1715,1.969,34.16,1111122 
SCCF RECON,ioos:station:SCCF:51:1,2009-11-05T01:00:00Z,26.5545,-82.1715,1.993,34.14,1111122 
SCCF RECON,ioos:station:SCCF:51:1,2009-11-05T02:00:00Z,26.5545,-82.1715,2.056,34.32,1111122 
SCCF RECON,ioos:station:SCCF:51:1,2009-11-05T03:00:00Z,26.5545,-82.1715,2.125,34.53,1111122 
SCCF RECON,ioos:station:SCCF:51:1,2009-11-05T04:00:00Z,26.5545,-82.1715,2.199,34.7,1111122 
SCCF RECON,ioos:station:SCCF:51:1,2009-11-05T05:00:00Z,26.5545,-82.1715,2.25,34.91,1111122 
SCCF RECON,ioos:station:SCCF:51:1,2009-11-05T06:00:00Z,26.5545,-82.1715,2.252,34.94,1111122 
SCCF RECON,ioos:station:SCCF:51:1,2009-11-05T07:00:00Z,26.5545,-82.1715,2.2,34.87,1111122 
SCCF RECON,ioos:station:SCCF:51:1,2009-11-05T08:00:00Z,26.5545,-82.1715,2.123,34.7,1111122 
SCCF RECON,ioos:station:SCCF:51:1,2009-11-05T09:00:00Z,26.5545,-82.1715,2.022,34.51,1111122 
SCCF RECON,ioos:station:SCCF:51:1,2009-11-05T10:00:00Z,26.5545,-82.1715,1.885,34.36,1111122 
SCCF RECON,ioos:station:SCCF:51:1,2009-11-05T11:00:00Z,26.5545,-82.1715,1.747,34.31,1111122 
SCCF RECON,ioos:station:SCCF:51:1,2009-11-05T12:00:00Z,26.5545,-82.1715,1.618,34.41,1111122 
SCCF RECON,ioos:station:SCCF:51:1,2009-11-05T13:00:00Z,26.5545,-82.1715,1.508,34.4,1111122 
SCCF RECON,ioos:station:SCCF:51:1,2009-11-05T14:00:00Z,26.5545,-82.1715,1.417,34.48,1111122 
SCCF RECON,ioos:station:SCCF:51:1,2009-11-05T15:00:00Z,26.5545,-82.1715,1.39,34.51,1111122 
SCCF RECON,ioos:station:SCCF:51:1,2009-11-05T16:00:00Z,26.5545,-82.1715,1.472,34.58,1111122 
SCCF RECON,ioos:station:SCCF:51:1,2009-11-05T17:00:00Z,26.5545,-82.1715,1.592,35.03,1111122 
SCCF RECON,ioos:station:SCCF:51:1,2009-11-05T18:00:00Z,26.5545,-82.1715,1.713,34.95,1111122 
SCCF RECON,ioos:station:SCCF:51:1,2009-11-05T19:00:00Z,26.5545,-82.1715,1.819,34.95,1111122 
SCCF RECON,ioos:station:SCCF:51:1,2009-11-05T20:00:00Z,26.5545,-82.1715,1.902,34.94,1111122 
SCCF RECON,ioos:station:SCCF:51:1,2009-11-05T21:00:00Z,26.5545,-82.1715,1.931,34.96,1111122 
SCCF RECON,ioos:station:SCCF:51:1,2009-11-05T22:00:00Z,26.5545,-82.1715,1.917,35.0,1111122 
SCCF RECON,ioos:station:SCCF:51:1,2009-11-05T23:00:00Z,26.5545,-82.1715,1.894,34.77,1111122 
SCCF RECON,ioos:station:SCCF:51:1,2009-11-06T00:00:00Z,26.5545,-82.1715,1.87,34.78,1111122 
SCCF RECON,ioos:station:SCCF:51:1,2009-11-06T01:00:00Z,26.5545,-82.1715,1.894,34.79,1111122 
SCCF RECON,ioos:station:SCCF:51:1,2009-11-06T02:00:00Z,26.5545,-82.1715,1.935,34.99,1111122 
SCCF RECON,ioos:station:SCCF:51:1,2009-11-06T03:00:00Z,26.5545,-82.1715,1.973,34.95,1111122 
SCCF RECON,ioos:station:SCCF:51:1,2009-11-06T04:00:00Z,26.5545,-82.1715,2.016,35.01,1111122 
SCCF RECON,ioos:station:SCCF:51:1,2009-11-06T05:00:00Z,26.5545,-82.1715,2.066,35.02,1111122 
SCCF RECON,ioos:station:SCCF:51:1,2009-11-06T06:00:00Z,26.5545,-82.1715,2.084,34.8,1111122 
SCCF RECON,ioos:station:SCCF:51:1,2009-11-06T07:00:00Z,26.5545,-82.1715,2.069,34.69,1111122 
SCCF RECON,ioos:station:SCCF:51:1,2009-11-06T08:00:00Z,26.5545,-82.1715,2.031,34.72,1111122 
SCCF RECON,ioos:station:SCCF:51:1,2009-11-06T09:00:00Z,26.5545,-82.1715,1.969,34.73,1111122 
SCCF RECON,ioos:station:SCCF:51:1,2009-11-06T10:00:00Z,26.5545,-82.1715,1.877,35.06,1111122 
SCCF RECON,ioos:station:SCCF:51:1,2009-11-06T11:00:00Z,26.5545,-82.1715,1.758,35.09,1111122 
SCCF RECON,ioos:station:SCCF:51:1,2009-11-06T12:00:00Z,26.5545,-82.1715,1.633,35.04,1111122 
SCCF RECON,ioos:station:SCCF:51:1,2009-11-06T13:00:00Z,26.5545,-82.1715,1.513,35.03,1111122 
SCCF RECON,ioos:station:SCCF:51:1,2009-11-06T14:00:00Z,26.5545,-82.1715,1.402,35.08,1111122 
SCCF RECON,ioos:station:SCCF:51:1,2009-11-06T15:00:00Z,26.5545,-82.1715,1.327,35.06,1111122 
SCCF RECON,ioos:station:SCCF:51:1,2009-11-06T16:00:00Z,26.5545,-82.1715,1.323,35.13,1111122 
SCCF RECON,ioos:station:SCCF:51:1,2009-11-06T17:00:00Z,26.5545,-82.1715,1.413,35.08,1111122 
SCCF RECON,ioos:station:SCCF:51:1,2009-11-06T18:00:00Z,26.5545,-82.1715,1.535,34.74,1111122 
SCCF RECON,ioos:station:SCCF:51:1,2009-11-06T19:00:00Z,26.5545,-82.1715,1.667,34.91,1111122 
SCCF RECON,ioos:station:SCCF:51:1,2009-11-06T20:00:00Z,26.5545,-82.1715,1.779,34.87,1111122 
SCCF RECON,ioos:station:SCCF:51:1,2009-11-06T21:00:00Z,26.5545,-82.1715,1.835,34.93,1111122 
SCCF RECON,ioos:station:SCCF:51:1,2009-11-06T22:00:00Z,26.5545,-82.1715,1.853,34.92,1111122 
SCCF RECON,ioos:station:SCCF:51:1,2009-11-06T23:00:00Z,26.5545,-82.1715,1.854,34.83,1111122 
SCCF RECON,ioos:station:SCCF:51:1,2009-11-07T00:00:00Z,26.5545,-82.1715,1.847,34.94,1111122 
SCCF RECON,ioos:station:SCCF:51:1,2009-11-07T01:00:00Z,26.5545,-82.1715,1.849,34.94,1111122 
SCCF RECON,ioos:station:SCCF:51:1,2009-11-07T02:00:00Z,26.5545,-82.1715,1.871,34.81,1111122 
SCCF RECON,ioos:station:SCCF:51:1,2009-11-07T03:00:00Z,26.5545,-82.1715,1.913,34.88,1111122 
SCCF RECON,ioos:station:SCCF:51:1,2009-11-07T04:00:00Z,26.5545,-82.1715,1.964,34.96,1111122 
SCCF RECON,ioos:station:SCCF:51:1,2009-11-07T05:00:00Z,26.5545,-82.1715,2.027,34.98,1111122 
SCCF RECON,ioos:station:SCCF:51:1,2009-11-07T06:00:00Z,26.5545,-82.1715,2.077,35.08,1111122 
SCCF RECON,ioos:station:SCCF:51:1,2009-11-07T07:00:00Z,26.5545,-82.1715,2.12,35.11,1111122 
SCCF RECON,ioos:station:SCCF:51:1,2009-11-07T08:00:00Z,26.5545,-82.1715,2.132,34.94,1111122 
SCCF RECON,ioos:station:SCCF:51:1,2009-11-07T09:00:00Z,26.5545,-82.1715,2.141,34.9,1111122 
SCCF RECON,ioos:station:SCCF:51:1,2009-11-07T10:00:00Z,26.5545,-82.1715,2.075,34.87,1111122 
SCCF RECON,ioos:station:SCCF:51:1,2009-11-07T11:00:00Z,26.5545,-82.1715,1.981,35.04,1111122 
SCCF RECON,ioos:station:SCCF:51:1,2009-11-07T12:00:00Z,26.5545,-82.1715,1.864,35.02,1111122 
SCCF RECON,ioos:station:SCCF:51:1,2009-11-07T13:00:00Z,26.5545,-82.1715,1.734,34.88,1111122 
SCCF RECON,ioos:station:SCCF:51:1,2009-11-07T14:00:00Z,26.5545,-82.1715,1.619,35.05,1111122 
SCCF RECON,ioos:station:SCCF:51:1,2009-11-07T15:00:00Z,26.5545,-82.1715,1.517,35.1,1111122 
SCCF RECON,ioos:station:SCCF:51:1,2009-11-07T16:00:00Z,26.5545,-82.1715,1.458,35.1,1111122 
SCCF RECON,ioos:station:SCCF:51:1,2009-11-07T17:00:00Z,26.5545,-82.1715,1.481,35.1,1111122 
SCCF RECON,ioos:station:SCCF:51:1,2009-11-07T18:00:00Z,26.5545,-82.1715,1.575,35.11,1111122 
SCCF RECON,ioos:station:SCCF:51:1,2009-11-07T19:00:00Z,26.5545,-82.1715,1.694,34.95,1111122 
SCCF RECON,ioos:station:SCCF:51:1,2009-11-07T20:00:00Z,26.5545,-82.1715,1.806,34.83,1111122 
SCCF RECON,ioos:station:SCCF:51:1,2009-11-07T21:00:00Z,26.5545,-82.1715,1.895,34.92,1111122 
SCCF RECON,ioos:station:SCCF:51:1,2009-11-07T22:00:00Z,26.5545,-82.1715,1.944,34.91,1111122 
SCCF RECON,ioos:station:SCCF:51:1,2009-11-07T23:00:00Z,26.5545,-82.1715,1.937,34.88,1111122 
SCCF RECON,ioos:station:SCCF:51:1,2009-11-08T00:00:00Z,26.5545,-82.1715,1.908,34.83,1111122 
SCCF RECON,ioos:station:SCCF:51:1,2009-11-08T01:00:00Z,26.5545,-82.1715,1.873,34.44,1111122 
SCCF RECON,ioos:station:SCCF:51:1,2009-11-08T02:00:00Z,26.5545,-82.1715,1.863,34.33,1111122 
SCCF RECON,ioos:station:SCCF:51:1,2009-11-08T03:00:00Z,26.5545,-82.1715,1.875,34.41,1111122 
SCCF RECON,ioos:station:SCCF:51:1,2009-11-08T04:00:00Z,26.5545,-82.1715,1.907,34.77,1111122 
SCCF RECON,ioos:station:SCCF:51:1,2009-11-08T05:00:00Z,26.5545,-82.1715,1.945,34.99,1111122 
SCCF RECON,ioos:station:SCCF:51:1,2009-11-08T06:00:00Z,26.5545,-82.1715,2.019,34.93,1111122 
SCCF RECON,ioos:station:SCCF:51:1,2009-11-08T07:00:00Z,26.5545,-82.1715,2.104,34.95,1111122 
SCCF RECON,ioos:station:SCCF:51:1,2009-11-08T08:00:00Z,26.5545,-82.1715,2.179,35.43,1111122 
SCCF RECON,ioos:station:SCCF:51:1,2009-11-08T09:00:00Z,26.5545,-82.1715,2.205,35.28,1111122 
SCCF RECON,ioos:station:SCCF:51:1,2009-11-08T10:00:00Z,26.5545,-82.1715,2.174,35.34,1111122 
SCCF RECON,ioos:station:SCCF:51:1,2009-11-08T11:00:00Z,26.5545,-82.1715,2.101,35.16,1111122 
SCCF RECON,ioos:station:SCCF:51:1,2009-11-08T12:00:00Z,26.5545,-82.1715,1.997,34.95,1111122 
SCCF RECON,ioos:station:SCCF:51:1,2009-11-08T13:00:00Z,26.5545,-82.1715,1.893,34.99,1111122 
SCCF RECON,ioos:station:SCCF:51:1,2009-11-08T14:00:00Z,26.5545,-82.1715,1.782,34.81,1111122 
SCCF RECON,ioos:station:SCCF:51:1,2009-11-08T15:00:00Z,26.5545,-82.1715,1.674,34.51,1111122 
SCCF RECON,ioos:station:SCCF:51:1,2009-11-08T16:00:00Z,26.5545,-82.1715,1.579,34.62,1111122 
SCCF RECON,ioos:station:SCCF:51:1,2009-11-08T17:00:00Z,26.5545,-82.1715,1.541,34.74,1111122 
SCCF RECON,ioos:station:SCCF:51:1,2009-11-08T18:00:00Z,26.5545,-82.1715,1.563,34.85,1111122 
SCCF RECON,ioos:station:SCCF:51:1,2009-11-08T19:00:00Z,26.5545,-82.1715,1.669,34.57,1111122 
SCCF RECON,ioos:station:SCCF:51:1,2009-11-08T20:00:00Z,26.5545,-82.1715,1.779,34.42,1111122 
SCCF RECON,ioos:station:SCCF:51:1,2009-11-08T21:00:00Z,26.5545,-82.1715,1.876,34.76,1111122 
SCCF RECON,ioos:station:SCCF:51:1,2009-11-08T22:00:00Z,26.5545,-82.1715,1.956,34.64,1111122 
SCCF RECON,ioos:station:SCCF:51:1,2009-11-08T23:00:00Z,26.5545,-82.1715,1.996,34.8,1111122 
SCCF RECON,ioos:station:SCCF:51:1,2009-11-09T00:00:00Z,26.5545,-82.1715,2.022,35.14,1111122 
SCCF RECON,ioos:station:SCCF:51:1,2009-11-09T01:00:00Z,26.5545,-82.1715,1.999,34.53,1111122 
SCCF RECON,ioos:station:SCCF:51:1,2009-11-09T02:00:00Z,26.5545,-82.1715,1.977,34.05,1111122 
SCCF RECON,ioos:station:SCCF:51:1,2009-11-09T03:00:00Z,26.5545,-82.1715,1.947,33.91,1111122 
SCCF RECON,ioos:station:SCCF:51:1,2009-11-09T04:00:00Z,26.5545,-82.1715,1.934,33.91,1111122 
SCCF RECON,ioos:station:SCCF:51:1,2009-11-09T05:00:00Z,26.5545,-82.1715,1.973,34.27,1111122 
SCCF RECON,ioos:station:SCCF:51:1,2009-11-09T06:00:00Z,26.5545,-82.1715,2.032,33.79,1111122 
SCCF RECON,ioos:station:SCCF:51:1,2009-11-09T07:00:00Z,26.5545,-82.1715,2.107,33.7,1111122 
SCCF RECON,ioos:station:SCCF:51:1,2009-11-09T08:00:00Z,26.5545,-82.1715,2.173,34.19,1111122 
SCCF RECON,ioos:station:SCCF:51:1,2009-11-09T09:00:00Z,26.5545,-82.1715,2.251,34.79,1111122 
SCCF RECON,ioos:station:SCCF:51:1,2009-11-09T10:00:00Z,26.5545,-82.1715,2.305,35.06,1111122 
SCCF RECON,ioos:station:SCCF:51:1,2009-11-09T11:00:00Z,26.5545,-82.1715,2.318,34.82,1111122 
SCCF RECON,ioos:station:SCCF:51:1,2009-11-09T12:00:00Z,26.5545,-82.1715,2.277,34.21,1111122 
SCCF RECON,ioos:station:SCCF:51:1,2009-11-09T13:00:00Z,26.5545,-82.1715,2.194,33.69,1111122 
SCCF RECON,ioos:station:SCCF:51:1,2009-11-09T14:00:00Z,26.5545,-82.1715,2.092,33.78,1111122 
SCCF RECON,ioos:station:SCCF:51:1,2009-11-09T15:00:00Z,26.5545,-82.1715,1.984,33.59,1111122 
SCCF RECON,ioos:station:SCCF:51:1,2009-11-09T16:00:00Z,26.5545,-82.1715,1.874,33.49,1111122 
SCCF RECON,ioos:station:SCCF:51:1,2009-11-09T17:00:00Z,26.5545,-82.1715,1.803,33.24,1111122 
SCCF RECON,ioos:station:SCCF:51:1,2009-11-09T18:00:00Z,26.5545,-82.1715,1.784,33.22,1111122 
SCCF RECON,ioos:station:SCCF:51:1,2009-11-09T19:00:00Z,26.5545,-82.1715,1.852,32.7,1111122 
SCCF RECON,ioos:station:SCCF:51:1,2009-11-09T20:00:00Z,26.5545,-82.1715,1.958,32.77,1111122 
SCCF RECON,ioos:station:SCCF:51:1,2009-11-09T21:00:00Z,26.5545,-82.1715,2.059,33.35,1111122 
SCCF RECON,ioos:station:SCCF:51:1,2009-11-09T22:00:00Z,26.5545,-82.1715,2.155,33.9,1111122 
SCCF RECON,ioos:station:SCCF:51:1,2009-11-09T23:00:00Z,26.5545,-82.1715,2.237,34.63,1111122 
SCCF RECON,ioos:station:SCCF:51:1,2009-11-10T00:00:00Z,26.5545,-82.1715,2.294,34.89,1111122 
SCCF RECON,ioos:station:SCCF:51:1,2009-11-10T01:00:00Z,26.5545,-82.1715,2.3,34.81,1111122 
SCCF RECON,ioos:station:SCCF:51:1,2009-11-10T02:00:00Z,26.5545,-82.1715,2.267,33.98,1111122 
SCCF RECON,ioos:station:SCCF:51:1,2009-11-10T03:00:00Z,26.5545,-82.1715,2.211,34.48,1111122 
SCCF RECON,ioos:station:SCCF:51:1,2009-11-10T04:00:00Z,26.5545,-82.1715,2.149,34.41,1111122 
SCCF RECON,ioos:station:SCCF:51:1,2009-11-10T05:00:00Z,26.5545,-82.1715,2.1,33.8,1111122 
SCCF RECON,ioos:station:SCCF:51:1,2009-11-10T06:00:00Z,26.5545,-82.1715,2.05,33.48,1111122 
SCCF RECON,ioos:station:SCCF:51:1,2009-11-10T07:00:00Z,26.5545,-82.1715,2.059,33.44,1111122 
SCCF RECON,ioos:station:SCCF:51:1,2009-11-10T08:00:00Z,26.5545,-82.1715,2.075,33.39,1111122 
SCCF RECON,ioos:station:SCCF:51:1,2009-11-10T09:00:00Z,26.5545,-82.1715,2.148,33.26,1111122 
SCCF RECON,ioos:station:SCCF:51:1,2009-11-10T10:00:00Z,26.5545,-82.1715,2.201,33.21,1111122 
SCCF RECON,ioos:station:SCCF:51:1,2009-11-10T11:00:00Z,26.5545,-82.1715,2.235,32.82,1111122 
SCCF RECON,ioos:station:SCCF:51:1,2009-11-10T12:00:00Z,26.5545,-82.1715,2.28,32.9,1111122 
SCCF RECON,ioos:station:SCCF:51:1,2009-11-10T13:00:00Z,26.5545,-82.1715,2.288,33.18,1111122 
SCCF RECON,ioos:station:SCCF:51:1,2009-11-10T14:00:00Z,26.5545,-82.1715,2.238,32.8,1111122 
SCCF RECON,ioos:station:SCCF:51:1,2009-11-10T15:00:00Z,26.5545,-82.1715,2.17,32.93,1111122 
SCCF RECON,ioos:station:SCCF:51:1,2009-11-10T16:00:00Z,26.5545,-82.1715,2.078,32.88,1111122 
SCCF RECON,ioos:station:SCCF:51:1,2009-11-10T17:00:00Z,26.5545,-82.1715,2.0,32.39,1111122 
SCCF RECON,ioos:station:SCCF:51:1,2009-11-10T18:00:00Z,26.5545,-82.1715,1.922,31.91,1111122 
SCCF RECON,ioos:station:SCCF:51:1,2009-11-10T19:00:00Z,26.5545,-82.1715,1.882,32.81,1111122 
SCCF RECON,ioos:station:SCCF:51:1,2009-11-10T20:00:00Z,26.5545,-82.1715,1.907,32.1,1111122 
SCCF RECON,ioos:station:SCCF:51:1,2009-11-10T21:00:00Z,26.5545,-82.1715,1.998,32.21,1111122 
SCCF RECON,ioos:station:SCCF:51:1,2009-11-10T22:00:00Z,26.5545,-82.1715,2.1,32.27,1111122 
SCCF RECON,ioos:station:SCCF:51:1,2009-11-10T23:00:00Z,26.5545,-82.1715,2.214,34.62,1111122 
SCCF RECON,ioos:station:SCCF:51:1,2009-11-11T00:00:00Z,26.5545,-82.1715,2.277,34.58,1111122 
SCCF RECON,ioos:station:SCCF:51:1,2009-11-11T01:00:00Z,26.5545,-82.1715,2.31,34.86,1111122 
SCCF RECON,ioos:station:SCCF:51:1,2009-11-11T02:00:00Z,26.5545,-82.1715,2.274,34.78,1111122 
SCCF RECON,ioos:station:SCCF:51:1,2009-11-11T03:00:00Z,26.5545,-82.1715,2.207,33.7,1111122 
SCCF RECON,ioos:station:SCCF:51:1,2009-11-11T04:00:00Z,26.5545,-82.1715,2.136,33.26,1111122 
SCCF RECON,ioos:station:SCCF:51:1,2009-11-11T05:00:00Z,26.5545,-82.1715,2.062,32.86,1111122 
SCCF RECON,ioos:station:SCCF:51:1,2009-11-11T06:00:00Z,26.5545,-82.1715,1.993,32.72,1111122 
SCCF RECON,ioos:station:SCCF:51:1,2009-11-11T07:00:00Z,26.5545,-82.1715,1.93,32.33,1111122 
SCCF RECON,ioos:station:SCCF:51:1,2009-11-11T08:00:00Z,26.5545,-82.1715,1.912,32.34,1111122 
SCCF RECON,ioos:station:SCCF:51:1,2009-11-11T09:00:00Z,26.5545,-82.1715,1.945,32.36,1111122 
SCCF RECON,ioos:station:SCCF:51:1,2009-11-11T10:00:00Z,26.5545,-82.1715,2.052,32.6,1111122 
SCCF RECON,ioos:station:SCCF:51:1,2009-11-11T11:00:00Z,26.5545,-82.1715,2.102,32.7,1111122 
SCCF RECON,ioos:station:SCCF:51:1,2009-11-11T12:00:00Z,26.5545,-82.1715,2.12,32.89,1111122 
SCCF RECON,ioos:station:SCCF:51:1,2009-11-11T13:00:00Z,26.5545,-82.1715,2.139,32.84,1111122 
SCCF RECON,ioos:station:SCCF:51:1,2009-11-11T14:00:00Z,26.5545,-82.1715,2.137,32.93,1111122 
SCCF RECON,ioos:station:SCCF:51:1,2009-11-11T15:00:00Z,26.5545,-82.1715,2.119,32.57,1111122 
SCCF RECON,ioos:station:SCCF:51:1,2009-11-11T16:00:00Z,26.5545,-82.1715,2.054,32.26,1111122 
SCCF RECON,ioos:station:SCCF:51:1,2009-11-11T17:00:00Z,26.5545,-82.1715,1.971,32.09,1111122 